Tracking 18984 objects as of 24-Feb-2018
HD Live streaming from Space Station
objects crossing your sky now

PUCP-SAT 1

Track PUCP-SAT 1 now!
10-day predictions
PUCP-SAT 1 is classified as:


NORAD ID: 39442
Int'l Code: 2013-066AC
Perigee: 580.4 km
Apogee: 627.0 km
Inclination: 97.6 °
Period: 96.6 minutes
Semi major axis: 6974 km
RCS: Unknown
Launch date: November 21, 2013
Source: (TBD)
Launch site: Orenburg, Russia (OREN)
Uplink (MHz): 145.840
Downlink (MHz): 145.840/437.200
Beacon (MHz):
Mode: 1200bps AFSK
Call sign:
Status: Inactive

aabbcc
Your satellite tracking list
Your tracking list is empty




NASA's NSSDC Master Catalog

Two Line Element Set (TLE):
1 39442U 13066AC  18054.59559715 +.00000241 +00000-0 +30048-4 0  9998
2 39442 097.6154 112.4571 0033438 107.5266 252.9611 14.90435390229518
Source of the keplerian elements: AFSPC